Printer-friendly version

IAU Minor Planet Center

Minor Planet Center

MPEC 2004-J47 : 2001 XP88

The following Minor Planet Electronic Circular may be linked-to from your own Web pages, but must not otherwise be redistributed electronically.


Read MPEC 2004-J46 Read MPEC 2004-J48


M.P.E.C. 2004-J47                                Issued 2004 May 12, 15:31 UT

     The Minor Planet Electronic Circulars contain information on unusual
         minor planets and routine data on comets.  They are published
   on behalf of Commission 20 of the International Astronomical Union by the
          Minor Planet Center, Smithsonian Astrophysical Observatory,
                          Cambridge, MA 02138, U.S.A.

         Supported in part by the Steven and Michele Kirsch Foundation
             Prepared using the Tamkin Foundation Computer Network

                              MPC@CFA.HARVARD.EDU
          URL http://cfa-www.harvard.edu/iau/mpc.html  ISSN 1523-6714

                                   2001 XP88

                           Revision to MPEC 2001-Y05

Additional Observations:
     K01X88P  C2004 05 11.36977 17 08 05.43 -09 38 45.5          20.4 R EJ047926
     K01X88P  C2004 05 11.37537 17 08 05.11 -09 38 46.2          20.8 R EJ047926
     K01X88P  C2004 05 11.38049 17 08 04.83 -09 38 45.1          21.1 R EJ047926
     K01X88P  C2004 05 11.43466 17 08 01.95 -09 38 42.9          20.8 R EJ047926
     K01X88P  C2004 05 11.43988 17 08 01.67 -09 38 42.7          20.7 R EJ047926
     K01X88P  C2004 05 11.44512 17 08 01.40 -09 38 43.1          20.6 R EJ047926
     K01X88P  C2004 05 12.38339 17 07 16.37 -09 38 18.7          20.6 R EJ047926
     K01X88P  C2004 05 12.38800 17 07 16.11 -09 38 19.0          20.7 R EJ047926
     K01X88P  C2004 05 12.39258 17 07 15.82 -09 38 18.4          20.5 R EJ047926

Observer details:
926 Tenagra II Observatory.  Observers P. R. Holvorcem, M. Schwartz.  0.81-m
    f/7 Ritchey-Chretien + CCD.

First and last observations above in comparison with prediction:
Residuals in seconds of arc (or two decimals in degrees), reference and Delta-T
040511 926 0.17- 0.04+    040512 926 0.17- 0.04+    MPO 26074   +0.10 day

Orbital elements:
2001 XP88
Epoch 2004 July 14.0 TT = JDT 2453200.5                 MPC
M 300.42238              (2000.0)            P               Q
n   0.63063696     Peri.  261.14664     +0.99308918     +0.01514944
a   1.3467380      Node    97.92481     +0.03044887     +0.92442025
e   0.1944457      Incl.    6.74798     -0.11334349     +0.38107439
P   1.56           H   20.7           G   0.15           U   4
Residuals in seconds of arc
011214 704  0.5-  0.2-    011220 704  0.0   0.1-    020111 413  0.6-  0.4-
011214 704  0.8+  1.2+    011220 704  1.0+  1.5-    020111 413  1.0-  0.4-
011214 704  0.0   0.0     011220 704  0.3+  0.5-    020213 696  0.5+  0.9-
011214 704  0.1+  0.7+    011220 704  0.1+  0.5-    020213 696  0.1+  0.3-
011215 046  0.3-  0.2-    011223 587  2.9+  1.2+    040511 926  0.3+  0.1-
011215 046  0.1-  0.7+    011223 587  0.8+  0.7-    040511 926  0.0   1.0-
011215 046  0.5+  0.2+    020103 413  0.1-  0.1-    040511 926  0.1-  0.0
011215 046  0.1-  0.0     020103 413  0.3-  0.1-    040511 926  0.0   0.3+
011217 918  2.1-  0.8+    020103 413  0.3-  0.3-    040511 926  0.1-  0.3+
011217 704  0.1-  0.0     020111 696  0.6-  1.3+    040511 926  0.0   0.3-
011217 918  0.1+  0.4-    020111 696  2.3+  0.9+    040512 926  0.1+  0.4+
011217 918  0.4-  1.1-    020111 413  0.4-  0.2+    040512 926  0.1+  0.0
011217 704  0.9-  0.4-    020111 413  0.8-  0.5+    040512 926  0.3-  0.5+
011217 704  0.5-  0.3-    020111 413  0.5-  0.3+

Ephemeris:
2001 XP88                a,e,i = 1.35, 0.19, 7                   q = 1.0849
Date    TT    R. A. (2000) Decl.     Delta      r     Elong.  Phase     V
2004 05 05    17 11.75   -09 45.7    0.507    1.453   144.7    23.6    21.2
2004 05 15    17 04.87   -09 38.0    0.446    1.428   154.9    17.5    20.6
2004 05 25    16 51.82   -09 54.9    0.398    1.401   164.8    10.9    20.1
2004 06 04    16 33.84   -10 45.6    0.365    1.374   167.8     9.0    19.8
2004 06 14    16 13.72   -12 13.1    0.347    1.345   158.7    15.9    19.9
2004 06 24    15 55.35   -14 14.2    0.343    1.316   146.5    25.3    20.1
2004 07 04    15 42.21   -16 40.9    0.349    1.287   134.8    34.1    20.4
2004 07 14    15 35.98   -19 24.5    0.362    1.257   124.5    41.8    20.6
2004 07 24    15 37.10   -22 18.6    0.378    1.229   115.8    48.1    20.8
2004 08 03    15 45.22   -25 17.9    0.395    1.201   108.7    53.1    21.0
2004 08 13    15 59.71   -28 16.5    0.411    1.175   102.9    57.2    21.2
2004 08 23    16 20.28   -31 08.5    0.424    1.151    98.3    60.3    21.3
2004 09 02    16 46.66   -33 45.7    0.435    1.130    94.6    62.8    21.4
2004 09 12    17 18.63   -35 57.8    0.443    1.113    91.9    64.7    21.5
2004 09 22    17 56.03   -37 32.2    0.450    1.099    89.9    65.9    21.5
2004 10 02    18 38.17   -38 15.1    0.455    1.090    88.7    66.6    21.5
2004 10 12    19 23.79   -37 52.8    0.460    1.085    88.2    66.8    21.5
2004 10 22    20 11.26   -36 15.9    0.466    1.086    88.2    66.4    21.6
2004 11 01    20 58.55   -33 22.3    0.475    1.091    88.7    65.5    21.6
2004 11 11    21 44.04   -29 18.7    0.489    1.101    89.5    64.1    21.6
2004 11 21    22 26.86   -24 19.3    0.508    1.115    90.5    62.4    21.7
2004 12 01    23 06.69   -18 43.9    0.535    1.133    91.3    60.5    21.8
2004 12 11    23 43.74   -12 52.5    0.570    1.154    91.9    58.5    21.9
2004 12 21    00 18.53   -07 02.6    0.614    1.178    92.0    56.6    22.0

Gareth V. Williams           (C) Copyright 2004 MPC           M.P.E.C. 2004-J47

Read MPEC 2004-J46 Read MPEC 2004-J48


Our Web policy. Index to the CBAT/MPC/ICQ pages.


Valid HTML 4.01!